Muncie, IN

4:16 AM EDT on May 26, 2018 (GMT -0400)
Delaware County-Johnson

Weather History for KMIE - February, 2015

Change the Weather History Date:

Sunday, February 1, 2015

  Actual Average Record
Temperature  
Mean Temperature 30 °F 27 °F  
Max Temperature 36 °F 35 °F 63 °F (1989)
Min Temperature 24 °F 19 °F -3 °F (1971)
Degree Days  
Heating Degree Days 35 38  
Month to date heating degree days 35 38  
Since 1 July heating degree days 3598 3431  
Cooling Degree Days 0 0  
Month to date cooling degree days 0 0  
Year to date cooling degree days 0 0  
Moisture  
Dew Point 31 °F    
Average Humidity 91    
Maximum Humidity 100    
Minimum Humidity 82    
Precipitation  
Precipitation 0.46 in 0.08 in 0.93 in (2014)
Month to date precipitation 0.46 0.08  
Year to date precipitation 2.39 2.31  
Sea Level Pressure  
Sea Level Pressure 29.81 in    
Wind  
Wind Speed 8 mph (ESE)    
Max Wind Speed 20 mph    
Max Gust Speed 23 mph    
Visibility 3 miles    
Events Fog , Rain , Snow    
T = Trace of Precipitation, MM = Missing Value Source: NWS Daily Summary

Daily Weather History Graph

Daily Weather History Graph

Search for Another Location

Airport or City:

Astronomy

Feb. 01, 2015 Rise Set
Actual Time 7:50 AM EST 6:00 PM EST
Civil Twilight 7:22 AM EST 6:28 PM EST
Nautical Twilight 6:49 AM EST 7:01 PM EST
Astronomical Twilight 6:17 AM EST 7:33 PM EST
Moon 4:17 PM EST (2/1) 5:58 AM EST (2/1)
Length of Visible Light 11h 06m
Length of Day
10h 09m
Waxing Gibbous, 95% of the Moon is Illuminated
Feb 1
Waxing Gibbous
Feb 3
Full
Feb 11
Last Quarter
Feb 18
New
Feb 25
First Quarter

Hourly Weather History & Observations

Time (EST) Temp. Windchill Dew Point Humidity Pressure Visibility Wind Dir Wind Speed Gust Speed Precip Events Conditions
12:44 AM 32.0 °F 26.4 °F 30.0 °F 92% 30.19 in 1.2 mi SW 5.8 mph - 0.02 in Snow Light Snow
12:53 AM 32.0 °F 25.6 °F 30.0 °F 92% 30.20 in 1.5 mi SSW 6.9 mph - 0.02 in Snow Light Snow
1:06 AM 32.0 °F 26.4 °F 30.0 °F 92% 30.18 in 2.0 mi SSW 5.8 mph - 0.01 in Snow Light Snow
1:16 AM 32.0 °F 26.4 °F 30.9 °F 96% 30.17 in 3.0 mi SSW 5.8 mph - 0.02 in Rain Light Freezing Rain
1:53 AM 32.0 °F 28.7 °F 30.9 °F 96% 30.17 in 3.0 mi SSW 3.5 mph - 0.03 in Rain Light Freezing Rain
2:07 AM 32.0 °F 28.7 °F 30.9 °F 96% 30.15 in 2.5 mi South 3.5 mph - 0.01 in Rain Light Freezing Rain
2:14 AM 32.0 °F 27.5 °F 30.9 °F 96% 30.15 in 2.5 mi SSW 4.6 mph - 0.01 in Rain Light Freezing Rain
2:17 AM 32.0 °F 28.7 °F 30.9 °F 96% 30.15 in 2.0 mi SSW 3.5 mph - 0.01 in Rain Light Freezing Rain
2:46 AM 32.0 °F 25.6 °F 30.9 °F 96% 30.15 in 2.0 mi South 6.9 mph - 0.03 in Snow Light Snow
2:53 AM 33.1 °F 28.7 °F 30.9 °F 92% 30.16 in 2.5 mi South 4.6 mph - 0.03 in   Overcast
3:10 AM 33.1 °F 28.7 °F 30.9 °F 92% 30.12 in 1.5 mi SE 4.6 mph - 0.00 in Rain Light Rain
3:19 AM 33.1 °F 28.7 °F 30.9 °F 92% 30.12 in 2.0 mi SSE 4.6 mph - 0.00 in   Overcast
3:31 AM 33.1 °F - 30.9 °F 92% 30.11 in 3.0 mi Calm Calm - 0.00 in Rain Light Rain
3:53 AM 32.0 °F 27.5 °F 30.9 °F 96% 30.12 in 3.0 mi SE 4.6 mph - 0.00 in   Overcast
4:32 AM 33.1 °F 26.1 °F 30.9 °F 92% 30.10 in 3.0 mi SSE 8.1 mph - N/A   Overcast
4:53 AM 33.1 °F 27.7 °F 30.9 °F 92% 30.11 in 3.0 mi South 5.8 mph - N/A   Overcast
5:13 AM 33.1 °F 27.7 °F 30.9 °F 92% 30.09 in 3.0 mi SSE 5.8 mph - 0.00 in   Overcast
5:53 AM 33.1 °F - 30.9 °F 92% 30.08 in 4.0 mi North - - 0.01 in   Overcast
6:41 AM 33.1 °F 27.7 °F 30.9 °F 92% 30.05 in 4.0 mi SSE 5.8 mph - 0.00 in Rain Light Rain
6:53 AM 33.1 °F 24.9 °F 30.9 °F 92% 30.04 in 4.0 mi East 10.4 mph - 0.01 in Snow Light Snow
7:13 AM 33.1 °F 24.9 °F 30.0 °F 89% 30.00 in 7.0 mi ESE 10.4 mph - 0.00 in   Mostly Cloudy
7:53 AM 34.0 °F 25.0 °F 30.0 °F 85% 30.00 in 9.0 mi ESE 12.7 mph - 0.00 in   Clear
8:53 AM 34.0 °F 26.0 °F 30.0 °F 85% 29.98 in 8.0 mi ESE 10.4 mph - N/A   Overcast
9:53 AM 35.1 °F 25.9 °F 30.9 °F 85% 29.93 in 9.0 mi SE 13.8 mph - N/A   Overcast
10:53 AM 36.0 °F 29.6 °F 30.0 °F 79% 29.90 in 6.0 mi South 8.1 mph - 0.00 in   Haze
11:14 AM 35.1 °F 30.1 °F 30.9 °F 85% 29.87 in 9.0 mi ESE 5.8 mph - 0.00 in   Overcast
11:26 AM 36.0 °F 33.3 °F 30.9 °F 82% 29.87 in 10.0 mi SSW 3.5 mph - 0.00 in   Overcast
11:36 AM 36.0 °F 29.6 °F 30.0 °F 79% 29.87 in 10.0 mi SSE 8.1 mph - 0.00 in   Overcast
11:47 AM 35.6 °F 27.1 °F 30.2 °F 81% 29.86 in 1.8 mi SSE 12.7 mph 18.4 mph 0.00 in Snow Light Snow
11:53 AM 35.1 °F 28.6 °F 30.9 °F 85% 29.86 in 1.2 mi SSE 8.1 mph 18.4 mph 0.00 in Snow Light Snow
12:00 PM 35.1 °F 29.3 °F 30.9 °F 85% 29.84 in 3.0 mi SE 6.9 mph - 0.00 in Snow Light Snow
12:13 PM 34.0 °F 28.0 °F 30.9 °F 89% 29.83 in 1.8 mi SE 6.9 mph - 0.01 in Snow Light Snow
12:30 PM 34.0 °F 26.6 °F 30.9 °F 89% 29.82 in 0.5 mi SE 9.2 mph - 0.02 in Fog , Snow Snow
12:44 PM 33.1 °F 26.1 °F 32.0 °F 96% 29.80 in 0.5 mi SE 8.1 mph - 0.04 in Fog , Snow Snow
12:53 PM 33.1 °F 26.1 °F 32.0 °F 96% 29.81 in 0.2 mi SE 8.1 mph - 0.06 in Fog , Snow Heavy Snow
1:08 PM 33.1 °F 26.1 °F 32.0 °F 96% 29.77 in 0.5 mi ESE 8.1 mph - 0.04 in Fog , Snow Snow
1:17 PM 33.1 °F 26.1 °F 32.0 °F 96% 29.76 in 0.8 mi ESE 8.1 mph - 0.05 in Snow Light Snow
1:32 PM 33.1 °F 26.1 °F 32.0 °F 96% 29.74 in 1.2 mi SE 8.1 mph - 0.05 in Snow Light Snow
1:53 PM 33.1 °F 25.5 °F 32.0 °F 96% 29.74 in 0.8 mi ESE 9.2 mph - 0.07 in Snow Light Snow
2:14 PM 33.1 °F 26.1 °F 32.0 °F 96% 29.69 in 1.2 mi ESE 8.1 mph - 0.01 in Snow Light Snow
2:23 PM 33.1 °F 26.1 °F 32.0 °F 96% 29.69 in 1.0 mi ESE 8.1 mph - 0.02 in Snow Light Snow
2:53 PM 33.1 °F 25.5 °F 32.0 °F 96% 29.67 in 2.5 mi ESE 9.2 mph - 0.03 in Snow Light Snow
3:00 PM 33.1 °F 26.1 °F 32.0 °F 96% 29.65 in 2.0 mi ESE 8.1 mph - 0.00 in   Overcast
3:08 PM 33.1 °F 26.1 °F 32.0 °F 96% 29.65 in 1.8 mi SE 8.1 mph - 0.00 in   Overcast
3:53 PM 34.0 °F 28.0 °F 33.1 °F 96% 29.63 in 1.5 mi SE 6.9 mph - 0.02 in Rain Light Rain
4:22 PM 34.0 °F 28.8 °F 33.1 °F 96% 29.60 in 1.0 mi ESE 5.8 mph - 0.02 in Rain Light Rain
4:53 PM 34.0 °F 29.8 °F 33.1 °F 96% 29.60 in 1.8 mi East 4.6 mph - 0.06 in Rain Light Rain
5:14 PM 34.0 °F 29.8 °F 33.1 °F 96% 29.58 in 2.0 mi East 4.6 mph - 0.02 in Rain Light Rain
5:29 PM 34.0 °F 28.8 °F 33.1 °F 96% 29.57 in 1.8 mi East 5.8 mph - 0.03 in Rain Light Rain
5:44 PM 34.0 °F 31.0 °F 33.1 °F 96% 29.57 in 1.2 mi ESE 3.5 mph - 0.04 in Rain Light Rain
5:53 PM 34.0 °F 29.8 °F 33.1 °F 96% 29.59 in 1.0 mi East 4.6 mph - 0.05 in Rain Light Rain
6:46 PM 34.0 °F 28.8 °F 32.0 °F 92% 29.55 in 1.2 mi North 5.8 mph - 0.04 in Rain Light Rain
6:53 PM 34.0 °F 27.2 °F 32.0 °F 92% 29.57 in 1.5 mi NNW 8.1 mph - 0.05 in Rain Light Rain
7:14 PM 33.1 °F 27.7 °F 33.1 °F 100% 29.56 in 2.0 mi NNW 5.8 mph - 0.01 in Rain Light Rain
7:41 PM 33.1 °F 30.0 °F 33.1 °F 100% 29.54 in 1.5 mi NE 3.5 mph - 0.02 in Rain Light Rain
7:53 PM 33.1 °F 30.0 °F 32.0 °F 96% 29.55 in 2.0 mi ENE 3.5 mph - 0.02 in   Overcast
8:17 PM 33.1 °F 30.0 °F 32.0 °F 96% 29.53 in 3.0 mi NE 3.5 mph - 0.00 in   Overcast
8:40 PM 33.1 °F 28.7 °F 32.0 °F 96% 29.54 in 2.5 mi NNW 4.6 mph - 0.00 in   Overcast
8:53 PM 33.1 °F 27.7 °F 32.0 °F 96% 29.55 in 3.0 mi North 5.8 mph - 0.00 in   Overcast
9:15 PM 33.1 °F 26.1 °F 32.0 °F 96% 29.53 in 2.5 mi North 8.1 mph - N/A   Overcast
9:31 PM 33.1 °F 26.1 °F 30.9 °F 92% 29.54 in 3.0 mi North 8.1 mph - N/A   Overcast
9:46 PM 32.0 °F 24.2 °F 30.0 °F 92% 29.54 in 2.5 mi North 9.2 mph - 0.00 in   Overcast
9:53 PM 32.0 °F 23.0 °F 30.0 °F 92% 29.55 in 3.0 mi NNE 11.5 mph - 0.00 in   Overcast
10:30 PM 30.0 °F 20.0 °F 27.0 °F 88% 29.55 in 4.0 mi NNE 12.7 mph - N/A   Overcast
10:53 PM 28.0 °F 16.1 °F 25.0 °F 88% 29.58 in 2.5 mi NNE 16.1 mph - 0.00 in Snow Light Snow
11:02 PM 27.0 °F 15.6 °F 25.0 °F 92% 29.57 in 1.8 mi NNE 13.8 mph - 0.00 in Snow Light Snow
11:32 PM 26.1 °F 15.0 °F 24.1 °F 92% 29.58 in 1.2 mi North 12.7 mph - 0.00 in Snow Light Snow
11:47 PM 24.8 °F 11.9 °F 21.2 °F 86% 29.59 in 2.5 mi North 16.1 mph - 0.00 in Snow Light Snow
11:48 PM 24.1 °F 10.6 °F 21.0 °F 88% 29.60 in 2.5 mi North 17.3 mph - 0.00 in Snow Light Snow
11:52 PM 24.1 °F 11.5 °F 21.0 °F 88% 29.59 in 3.0 mi NNE 15.0 mph - 0.00 in Snow Light Snow